• MPC Preparation (Info)

  • MPEC 2004-T29 : 2004 TC10

    The following Minor Planet Electronic Circular may be linked-to from your own Web pages, but must not otherwise be redistributed electronically.

    A form allowing access to any MPEC is at the bottom of this page.


    Read MPEC 2004-T28 Read MPEC 2004-T30


    M.P.E.C. 2004-T29                                Issued 2004 Oct.  9, 14:36 UT
    
         The Minor Planet Electronic Circulars contain information on unusual
             minor planets and routine data on comets.  They are published
       on behalf of Commission 20 of the International Astronomical Union by the
              Minor Planet Center, Smithsonian Astrophysical Observatory,
                              Cambridge, MA 02138, U.S.A.
    
                      Supported in part by the Brinson Foundation
                 Prepared using the Tamkin Foundation Computer Network
    
                                  MPC@CFA.HARVARD.EDU
              URL http://cfa-www.harvard.edu/iau/mpc.html  ISSN 1523-6714
    
                                       2004 TC10
    
    Observations:
         K04T10C* C2004 10 07.28009 00 35 25.70 -00 12 16.8          20.0   ET029704
         K04T10C  C2004 10 07.29079 00 35 23.04 -00 12 14.7          19.7   ET029704
         K04T10C  C2004 10 07.30148 00 35 20.40 -00 12 11.8          20.0   ET029704
         K04T10C  C2004 10 07.31218 00 35 17.79 -00 12 10.2          20.1   ET029704
         K04T10C  C2004 10 07.32285 00 35 15.14 -00 12 07.9          19.9   ET029704
         K04T10C  C2004 10 08.22577 00 31 39.02 -00 08 40.7          19.1 R ET029G70
         K04T10C 5C2004 10 08.22894 00 31 38.24 -00 08 38.8          18.8 R ET029673
         K04T10C 5C2004 10 08.23090 00 31 37.69 -00 08 38.3                 ET029673
         K04T10C  C2004 10 08.23409 00 31 36.84 -00 08 38.2          19.3 R ET029854
         K04T10C 5C2004 10 08.23819 00 31 35.77 -00 08 36.5                 ET029673
         K04T10C  C2004 10 08.24111 00 31 34.99 -00 08 35.4          19.2 R ET029854
         K04T10C 5C2004 10 08.24167 00 31 35.01 -00 08 35.7                 ET029673
         K04T10C  C2004 10 08.25792 00 31 30.71 -00 08 31.8          18.9   ET029704
         K04T10C  C2004 10 08.26739 00 31 28.54 -00 08 30.7          19.4 R ET029G70
         K04T10C  C2004 10 08.26878 00 31 27.95 -00 08 29.0          19.2   ET029704
         K04T10C  C2004 10 08.27963 00 31 25.25 -00 08 26.7          19.4   ET029704
         K04T10C  C2004 10 08.28824 00 31 23.37 -00 08 25.2          19.0 R ET029G70
         K04T10C  C2004 10 08.29050 00 31 22.53 -00 08 24.2          19.8   ET029704
         K04T10C  C2004 10 08.30137 00 31 19.81 -00 08 21.7          19.4   ET029704
         K04T10C  C2004 10 08.45475 00 30 43.12 -00 07 14.5          18.7 R ET029474
         K04T10C  C2004 10 08.45590 00 30 42.85 -00 07 14.6          18.9 R ET029474
         K04T10C  C2004 10 08.45764 00 30 42.39 -00 07 14.0          18.9 R ET029474
         K04T10C  C2004 10 08.91787 00 28 50.13 -00 05 54.7          18.9 R ET029176
         K04T10C  C2004 10 08.91949 00 28 49.73 -00 05 54.3          18.8 R ET029176
         K04T10C  C2004 10 08.92111 00 28 49.33 -00 05 53.9          18.9 R ET029176
         K04T10C  C2004 10 08.92272 00 28 48.93 -00 05 53.5          19.0 R ET029176
         K04T10C  C2004 10 08.92434 00 28 48.53 -00 05 53.1          19.1 R ET029176
         K04T10C  C2004 10 08.95308 00 28 41.30 -00 05 45.9          18.9 V ET029941
         K04T10C  C2004 10 08.95388 00 28 41.09 -00 05 45.5          18.9 V ET029941
         K04T10C  C2004 10 08.95468 00 28 40.88 -00 05 45.3          19.0 V ET029941
         K04T10C  C2004 10 08.95548 00 28 40.68 -00 05 45.0          19.0 V ET029941
         K04T10C 2C2004 10 09.03323 00 28 22.53 -00 04 57.3          18.7 R ET029I05
         K04T10C 2C2004 10 09.03420 00 28 22.31 -00 04 57.0          18.8 R ET029I05
         K04T10C 2C2004 10 09.03517 00 28 22.02 -00 04 57.7          18.9 R ET029I05
         K04T10C 2C2004 10 09.03616 00 28 21.84 -00 04 56.9          18.7 R ET029I05
         K04T10C  C2004 10 09.05645 00 28 16.20 -00 04 55.8          18.8 R ET029I77
         K04T10C  C2004 10 09.06022 00 28 15.22 -00 04 54.8          18.9 R ET029I77
         K04T10C  C2004 10 09.06461 00 28 14.16 -00 04 53.8          18.9 R ET029I77
         K04T10C  C2004 10 09.16913 00 27 49.03 -00 04 48.6          18.8 R ET029G90
         K04T10C  C2004 10 09.17225 00 27 48.21 -00 04 47.7          18.5 R ET029G90
         K04T10C  C2004 10 09.17537 00 27 47.42 -00 04 46.7          18.6 R ET029G90
         K04T10C 5C2004 10 09.19352 00 27 42.94 -00 04 43.4          18.5 R ET029673
         K04T10C 5C2004 10 09.19595 00 27 42.37 -00 04 42.9                 ET029673
         K04T10C 5C2004 10 09.20069 00 27 41.14 -00 04 41.5                 ET029673
         K04T10C 5C2004 10 09.20833 00 27 39.24 -00 04 39.6                 ET029673
         K04T10C  C2004 10 09.24729 00 27 29.08 -00 04 27.7          18.9 R ET029711
         K04T10C  C2004 10 09.25333 00 27 27.47 -00 04 26.2          18.7 R ET029711
         K04T10C  C2004 10 09.25933 00 27 25.97 -00 04 24.6          19.3 R ET029711
    
    Observer details:
    176 Observatori Astronomic de Consell.  Observers A. Lopez, R. Pacheco,
        J. Forteza.  0.41-m f/4 reflector + CCD.
    474 Mount John Observatory, Lake Tekapo.  Observers A. C. Gilmore,
        P. M. Kilmartin.  Measurer P. M. Kilmartin.  0.6-m f/6.4 reflector + CCD.
    673 Table Mountain Observatory, Wrightwood.  Observer J. Young.  0.6-m
        reflector + CCD.
    704 Lincoln Laboratory ETS, New Mexico.  Observers M. Blythe, F. Shelly,
        M. Bezpalko, R. Huber, L. Manguso, D. Torres, R. Kracke, M. McCleary,
        H. Stange, A. Milner.  Measurers J. Stuart, R. Sayer, J. Evans, J. Kommers.
        1.0-m f/2.15 reflector + CCD.
    711 McDonald Observatory.  Observer J. G. Ries.  0.76-m reflector + CCD
        + prime-focus corrector.
    854 Sabino Canyon Observatory, Tucson.  Observer J. E. McGaha.  0.36-m f/10.0
        Schmidt-Cassegrain + CCD.
    941 Observatorio Pla D'Arguines.  Observer R. Ferrando.  0.36-m f/6.3
        Schmidt-Cassegrain + CCD.
    G70 Francisquito Observatory, Los Angeles.  Observer R. E. Jones.  0.30-m
        f/6.7 reflector + CCD.
    G90 Three Buttes Observatory, Tucson.  Observer G. R. Jones.  0.40-m
        Ritchey-Chretien + CCD.
    I05 Las Campanas Observatory-TIE.  Observers G. Masi, F. Mallia, R. Wilcox.
        Measurer G. Masi.  0.36-m SoTIE reflector + CCD.
    I77 CEAMIG-REA Observatory, Belo Horizonte.  Observers C. Jacques, E. Pimentel.
        Measurer C. Jacques.  0.30-m f/3.0 Schmidt-Cassegrain + CCD.
    
    Orbital elements:
    2004 TC10
    Epoch 2004 Oct. 2.0 TT = JDT 2453280.5                  MPC
    M 254.27655              (2000.0)            P               Q
    n   0.82926668     Peri.  136.05496     -0.88155223     -0.46687637
    a   1.1220354      Node    16.52011     +0.33592445     -0.72446458
    e   0.4097537      Incl.   14.23953     +0.33169328     -0.50712674
    P   1.19           H   20.3           G   0.15
    From 48 observations 2004 Oct. 7-9.
    
    Ephemeris:
    2004 TC10                a,e,i = 1.12, 0.41, 14                  q = 0.6623
    Date    TT    R. A. (2000) Decl.     Delta      r     Elong.  Phase     V
    2004 10 02    00 55.28   -00 28.6    0.387    1.386   173.2     4.9    19.4
    2004 10 12    00 16.02   +00 08.3    0.350    1.339   164.7    11.3    19.4
    2004 10 22    23 33.69   +01 12.5    0.337    1.287   145.4    26.0    19.7
    2004 11 01    22 56.42   +02 43.9    0.344    1.231   127.1    40.1    20.0
    2004 11 11    22 28.42   +04 35.2    0.361    1.169   111.1    52.2    20.3
    2004 11 21    22 09.37   +06 42.0    0.380    1.104    97.5    62.5    20.6
    2004 12 01    21 56.43   +09 00.3    0.394    1.034    85.8    71.9    20.9
    2004 12 11    21 46.05   +11 22.7    0.399    0.962    75.1    81.3    21.1
    2004 12 21    21 34.41   +13 34.4    0.393    0.890    64.7    91.8    21.3
    
    Kyle E. Smalley              (C) Copyright 2004 MPC           M.P.E.C. 2004-T29
    

    Read MPEC 2004-T28 Read MPEC 2004-T30


    MPEC number:

    Enter an MPEC number in one of the following forms:

    • 1997-B01 (the full form)
    • J97B01 (the packed version of the full form)
    • B01 (the abbreviated form)